Regional Weather Roundup
Issued by NWS

Home | Current Version | Previous Version | Graphics & Text | Print | Product List | Glossary On
Versions: 1 2 3 4 5 6 7 8 9 10 11 12 13 14 15 16 17 18 19 20 21 22 23 24 25 26 27 28 29 30 31 32 33 34 35 36 37 38 39 40 41 42 43 44 45 46 47 48 49 50
000
ASUS45 KCYS 041910
RWRWY

WYOMING REGIONAL WEATHER ROUNDUP
NATIONAL WEATHER SERVICE CHEYENNE WY
1200 PM MST SUN DEC 04 2016

NOTE:  "FAIR" INDICATES FEW OR NO CLOUDS BELOW 12,000 FEET
WITH NO SIGNIFICANT WEATHER AND/OR OBSTRUCTIONS TO VISIBILITY.

WYZ001-042000-
YELLOWSTONE NATIONAL PARK

CITY           SKY/WX    TMP DP  RH WIND       PRES   REMARKS
LK YELLOWSTONE   N/A     21  17  84 W9G21     29.77F WCI  11
W YELLOWSTONE  NOT AVBL

$$
WYZ002>013-054>058-071-098>099-042000-
NORTHERN WYOMING

CITY           SKY/WX    TMP DP  RH WIND       PRES   REMARKS
JACKSON        LGT SNOW  27  27 100 S17G29    29.86F VSB 1   WCI  14
CODY           NOT AVBL
GREYBULL       FAIR      37  16  42 SW3       29.73F
WORLAND        FAIR      40  21  46 CALM      29.72F
SHERIDAN       CLOUDY    40  17  39 SE9       29.71F WCI  34
BUFFALO        FAIR      38  16  40 CALM      29.72F
GILLETTE       FAIR      40  15  36 SW15      29.74F WCI  32
HULETT         FAIR      36  18  48 SW10G16   29.76F WCI  28
NEWCASTLE      FAIR      32  14  47 SE7       29.81F WCI  26

$$
WYZ014>020-022>026-101>103-042000-
CENTRAL WYOMING

CITY           SKY/WX    TMP DP  RH WIND       PRES   REMARKS
BIG PINEY      CLOUDY    28  19  69 CALM      29.94F
PINEDALE       LGT SNOW  27  23  86 MISG      29.95F
DUBOIS         FLURRIES  30  19  64 NW18G28   29.75F WCI  18
LANDER         FAIR      34  13  41 CALM      29.77F
RIVERTON       FAIR      36  14  40 S7        29.78F WCI  30
CASPER         FAIR      36  17  46 SW30G40   29.79F WCI  23
DOUGLAS        FAIR      43  17  35 W15G25    29.80F

$$
WYZ021-027>030-104>119-042000-
SOUTHERN WYOMING

CITY           SKY/WX    TMP DP  RH WIND       PRES   REMARKS
EVANSTON       FAIR      33  13  43 SW17      30.01F WCI  22
KEMMERER         N/A     32  18  55 W18G28    29.97  WCI  20
FORT BRIDGER   FAIR      38  15  38 W22G31    30.00F WCI  27
ROCK SPRINGS   FAIR      31  13  47 W26G32    29.96F WCI  17
DIXON          CLOUDY    32  15  49 SW20G26   30.08F WCI  20
RAWLINS        FAIR      30  14  51 SW23G31   29.92F WCI  17
SARATOGA       FAIR      32  16  51 S9G17     29.97F WCI  24
LARAMIE        PTSUNNY   34  14  43 SW25G32   29.90F WCI  21
CHEYENNE       FAIR      44  13  28 W29G36    29.86F
TORRINGTON     FAIR      43  12  28 W16G24    29.85F
PINE BLUFFS    FAIR      41   5  22 SW17      29.90F

$$



USA.gov is the U.S. government's official web portal to all federal, state and local government web resources and services.